EW5586 Weather Reports


time (UTC)temp
F
wind
direction
speed
knots
gust
knots
rain 1hr
in
rain 24hr
in
rain mn
in
humidity
%
barometer
mb
20260507030845 0 0.0 0.0 0.00 0.01 0.01 1009.2
20260507030344 0 0.0 0.0 0.00 0.01 0.01 1009.3
20260507025836 0 0.0 0.0 0.00 0.01 0.01 1009.4
20260507025243 0 0.0 0.0 0.00 0.01 0.01 1009.4
20260507024144 0 0.0 0.0 0.00 0.01 0.01 1009.4
20260507023639 0 0.0 0.0 0.00 0.01 0.01 1009.5
20260507022542 0 0.0 0.0 0.00 0.01 0.01 1009.3
20260507022028 0 0.0 0.0 0.00 0.01 0.01 1009.4
20260507020938 0 0.0 0.0 0.00 0.01 0.01 1009.5
20260507020342 0 0.0 0.0 0.00 0.01 0.01 1009.7
20260507015840 0 0.0 0.0 0.00 0.01 0.01 1009.7
20260507015334 0 0.0 0.0 0.00 0.01 0.01 1009.7
20260507014740 0 0.0 0.0 0.00 0.01 0.01 1009.7
20260507014148 0 0.0 0.0 0.00 0.01 0.01 1009.7
20260507013639 0 0.0 0.0 0.00 0.01 0.01 1009.7
20260507013045 0 0.0 0.0 0.00 0.02 0.01 1009.8
20260507011527 0 0.0 0.0 0.00 0.02 0.01 1009.5
20260507010430 0 0.0 0.0 0.00 0.02 0.01 1009.5
20260507005836 0 0.0 0.0 0.00 0.04 0.01 1009.4
20260507005249 0 0.0 0.0 0.00 0.04 0.01 1009.3
20260507004232 0 0.0 0.0 0.00 0.05 0.01 1009.4
20260507003638 0 0.0 0.0 0.00 0.05 0.01 1009.5
20260507003048 0 0.0 0.0 0.00 0.05 0.01 1009.4
20260507002530 0 0.0 0.0 0.00 0.05 0.01 1009.3
20260507001941 0 0.0 0.0 0.00 0.05 0.01 1009.3
20260507001346 0 0.0 0.0 0.00 0.05 0.01 1009.2
20260507000840 0 0.0 0.0 0.00 0.05 0.01 1009.0
20260506235738 0 0.0 0.0 0.00 0.06 0.01 1009.1
20260506235236 0 0.0 0.0 0.00 0.06 0.01 1009.0
20260506234734 0 0.0 0.0 0.00 0.06 0.01 1009.0
20260506234148 0 0.0 0.0 0.00 0.06 0.01 1009.0
20260506232639 0 0.0 0.0 0.00 0.08 0.01 1009.0
20260506232137 0 0.0 0.0 0.00 0.09 0.01 1008.9
20260506231542 0 0.0 0.0 0.00 0.09 0.01 1009.0
20260506230450 0 0.0 0.0 0.00 0.09 0.01 1008.9
20260506225943 0 0.0 0.0 0.00 0.09 0.01 1008.9
20260506225432 0 0.0 0.0 0.00 0.09 0.01 1008.8
20260506224843 0 0.0 0.0 0.00 0.09 0.01 1008.8
20260506224246 0 0.0 0.0 0.00 0.09 0.01 1008.7
20260506223146 0 0.0 0.0 0.00 0.09 0.01 1008.8
20260506222639 0 0.0 0.0 0.00 0.09 0.01 1008.8
20260506222045 0 0.0 0.0 0.00 0.09 0.01 1008.8
20260506221542 0 0.0 0.0 0.00 0.09 0.01 1008.7
20260506221040 0 0.0 0.0 0.00 0.09 0.01 1008.7
20260506220537 0 0.0 0.0 0.00 0.09 0.01 1008.7
20260506215944 0 0.0 0.0 0.00 0.09 0.01 1008.8
20260506215439 0 0.0 0.0 0.00 0.09 0.01 1008.8
20260506214845 0 0.0 0.0 0.00 0.09 0.01 1008.7
20260506214342 0 0.0 0.0 0.00 0.09 0.01 1008.7
20260506213838 0 0.0 0.0 0.00 0.09 0.01 1008.6
20260506212746 0 0.0 0.0 0.00 0.09 0.01 1008.7
20260506212246 0 0.0 0.0 0.00 0.09 0.01 1008.5
20260506211734 0 0.0 0.0 0.00 0.09 0.01 1008.5
20260506205618 0 0.0 0.0 0.00 0.09 0.01 1008.7
20260506205035 0 0.0 0.0 0.00 0.09 0.01 1008.7
20260506204536 0 0.0 0.0 0.00 0.09 0.01 1008.8
20260506203945 0 0.0 0.0 0.00 0.09 0.01 1008.8
20260506203443 0 0.0 0.0 0.00 0.09 0.01 1008.6
20260506202934 0 0.0 0.0 0.00 0.09 0.01 1008.5
20260506202338 0 0.0 0.0 0.00 0.09 0.01 1008.4
20260506201835 0 0.0 0.0 0.00 0.09 0.01 1008.5
20260506200245 0 0.0 0.0 0.00 0.09 0.01 1008.6
20260506195743 0 0.0 0.0 0.00 0.09 0.01 1008.5
20260506195153 0 0.0 0.0 0.00 0.09 0.01 1008.6
20260506194049 0 0.0 0.0 0.00 0.09 0.01 1008.6
20260506192446 0 0.0 0.0 0.00 0.09 0.01 1009.0
20260506191944 0 0.0 0.0 0.00 0.09 0.01 1008.9
20260506191436 0 0.0 0.0 0.00 0.09 0.01 1008.9
20260506190841 0 0.0 0.0 0.00 0.09 0.01 1008.8
20260506190247 0 0.0 0.0 0.00 0.09 0.01 1008.9
20260506184640 0 0.0 0.0 0.00 0.09 0.01 1008.9
20260506184046 0 0.0 0.0 0.00 0.09 0.01 1008.8
20260506183539 0 0.0 0.0 0.00 0.09 0.01 1008.8
20260506183037 0 0.0 0.0 0.00 0.09 0.01 1008.7
20260506182442 0 0.0 0.0 0.00 0.09 0.01 1008.7
20260506181940 0 0.0 0.0 0.00 0.09 0.01 1008.8
20260506180932 0 0.0 0.0 0.00 0.09 0.01 1009.0
20260506180337 0 0.0 0.0 0.00 0.09 0.01 1009.0
20260506175824 0 0.0 0.0 0.00 0.09 0.01 1008.9
20260506174153 0 0.0 0.0 0.00 0.09 0.01 1008.8
20260506173643 0 0.0 0.0 0.00 0.09 0.01 1008.8
20260506172539 0 0.0 0.0 0.00 0.09 0.01 1008.7
20260506171948 0 0.0 0.0 0.00 0.09 0.01 1008.7
20260506171445 0 0.0 0.0 0.00 0.09 0.01 1008.6
20260506170346 0 0.0 0.0 0.00 0.09 0.01 1008.8
20260506165835 0 0.0 0.0 0.00 0.09 0.01 1008.9
20260506165244 0 0.0 0.0 0.00 0.09 0.01 1009.0
20260506164650 0 0.0 0.0 0.00 0.09 0.01 1008.9
20260506164144 0 0.0 0.0 0.00 0.09 0.01 1008.9
20260506163641 0 0.0 0.0 0.00 0.09 0.01 1009.0
20260506163141 0 0.0 0.0 0.00 0.09 0.01 1009.2
20260506162545 0 0.0 0.0 0.00 0.09 0.01 1009.2
20260506162043 0 0.0 0.0 0.00 0.09 0.01 1009.2
20260506160948 0 0.0 0.0 0.00 0.09 0.01 1009.5
20260506160439 0 0.0 0.0 0.00 0.09 0.01 1009.9
20260506155847 0 0.0 0.0 0.00 0.09 0.01 1009.9
20260506155347 0 0.0 0.0 0.00 0.09 0.01 1009.8
20260506154837 0 0.0 0.0 0.00 0.09 0.01 1009.8
20260506153744 0 0.0 0.0 0.00 0.09 0.01 1009.8
20260506153240 0 0.0 0.0 0.00 0.09 0.01 1009.7
20260506152650 0 0.0 0.0 0.00 0.09 0.01 1009.5
20260506152146 0 0.0 0.0 0.00 0.09 0.01 1009.4
20260506151628 0 0.0 0.0 0.00 0.09 0.01 1009.5
20260506151043 0 0.0 0.0 0.00 0.09 0.01 1009.5
20260506150537 0 0.0 0.0 0.00 0.09 0.01 1009.8
20260506145947 0 0.0 0.0 0.00 0.09 0.01 1009.7
20260506145448 0 0.0 0.0 0.00 0.09 0.01 1009.5
20260506144941 0 0.0 0.0 0.00 0.09 0.01 1009.5
20260506144437 0 0.0 0.0 0.00 0.09 0.01 1009.5
20260506143846 0 0.0 0.0 0.00 0.09 0.01 1009.4
20260506143340 0 0.0 0.0 0.00 0.09 0.01 1009.4
20260506142840 0 0.0 0.0 0.00 0.09 0.01 1009.5
20260506141747 0 0.0 0.0 0.00 0.09 0.01 1009.5
20260506141237 0 0.0 0.0 0.00 0.09 0.01 1009.5
20260506140722 0 0.0 0.0 0.00 0.09 0.01 1009.5
20260506140145 0 0.0 0.0 0.00 0.09 0.01 1009.5
20260506135638 0 0.0 0.0 0.00 0.09 0.01 1009.5
20260506135129 0 0.0 0.0 0.00 0.09 0.01 1009.5
20260506134041 0 0.0 0.0 0.00 0.09 0.01 1009.5
20260506133525 0 0.0 0.0 0.00 0.09 0.01 1009.4
20260506132938 0 0.0 0.0 0.00 0.09 0.01 1009.4
20260506132417 0 0.0 0.0 0.00 0.09 0.01 1009.4
20260506131841 0 0.0 0.0 0.00 0.09 0.01 1009.4
20260506131341 0 0.0 0.0 0.00 0.09 0.01 1009.5
20260506125151 0 0.0 0.0 0.00 0.09 0.01 1009.4
20260506124645 0 0.0 0.0 0.00 0.09 0.01 1009.3
20260506123551 0 0.0 0.0 0.00 0.09 0.01 1009.5
20260506122450 0 0.0 0.0 0.00 0.09 0.01 1009.5
20260506121950 0 0.0 0.0 0.00 0.09 0.01 1009.3
20260506121440 0 0.0 0.0 0.00 0.09 0.01 1009.5
20260506120344 0 0.0 0.0 0.00 0.09 0.01 1009.7
20260506115837 0 0.0 0.0 0.00 0.09 0.01 1009.4
20260506115333 0 0.0 0.0 0.00 0.09 0.01 1009.5
20260506114747 0 0.0 0.0 0.00 0.09 0.01 1009.5
20260506114246 0 0.0 0.0 0.00 0.09 0.01 1009.7
20260506113739 0 0.0 0.0 0.00 0.09 0.01 1009.7
20260506113233 0 0.0 0.0 0.00 0.09 0.01 1009.9
20260506112641 0 0.0 0.0 0.00 0.09 0.01 1009.9
20260506112129 0 0.0 0.0 0.00 0.09 0.01 1010.0
20260506111545 0 0.0 0.0 0.00 0.09 0.01 1010.0
20260506110538 0 0.0 0.0 0.00 0.09 0.01 1010.0
20260506110034 0 0.0 0.0 0.00 0.09 0.01 1010.0
20260506105447 0 0.0 0.0 0.00 0.09 0.01 1010.0
20260506104944 0 0.0 0.0 0.00 0.09 0.01 1009.9
20260506104429 0 0.0 0.0 0.00 0.09 0.01 1009.5
20260506103249 0 0.0 0.0 0.00 0.09 0.01 1009.8
20260506102747 0 0.0 0.0 0.00 0.09 0.01 1009.8
20260506102233 0 0.0 0.0 0.00 0.09 0.01 1009.7
20260506101640 0 0.0 0.0 0.00 0.09 0.01 1009.7
20260506100544 0 0.0 0.0 0.00 0.09 0.01 1009.5
20260506100045 0 0.0 0.0 0.00 0.09 0.01 1009.8
20260506095543 0 0.0 0.0 0.00 0.09 0.01 1009.7
20260506094449 0 0.0 0.0 0.00 0.09 0.01 1009.3
20260506093946 0 0.0 0.0 0.00 0.09 0.01 1009.2
20260506093436 0 0.0 0.0 0.00 0.09 0.01 1009.1
20260506092850 0 0.0 0.0 0.00 0.09 0.01 1009.2
20260506092330 0 0.0 0.0 0.00 0.09 0.01 1009.3
20260506091741 0 0.0 0.0 0.00 0.09 0.01 1009.2
20260506090634 0 0.0 0.0 0.00 0.09 0.01 1009.5
20260506090055 0 0.0 0.0 0.00 0.09 0.01 1009.5
20260506085546 0 0.0 0.0 0.00 0.09 0.01 1009.9
20260506085044 0 0.0 0.0 0.00 0.09 0.01 1009.9
20260506084543 0 0.0 0.0 0.00 0.09 0.01 1009.9
20260506084041 0 0.0 0.0 0.00 0.09 0.01 1010.0
20260506083539 0 0.0 0.0 0.00 0.09 0.01 1010.0
20260506082947 0 0.0 0.0 0.00 0.09 0.01 1010.0
20260506082441 0 0.0 0.0 0.00 0.09 0.01 1009.8
20260506081846 0 0.0 0.0 0.00 0.09 0.01 1009.8
20260506081337 45 0.0 0.0 0.00 0.09 0.01 92 1009.9
20260506080745 45 180 1.7 4.3 0.00 0.09 0.01 92 1009.8
20260506080222 45 180 1.7 5.2 0.00 0.09 0.01 92 1009.5
20260506073152 45 234 0.9 4.3 0.00 0.09 0.01 92 1009.2
20260506072646 45 208 1.7 4.3 0.00 0.09 0.01 92 1009.1
20260506072140 45 207 3.5 7.8 0.00 0.09 0.01 92 1009.0
20260506071128 45 219 4.3 8.7 0.01 0.09 0.01 92 1009.2
20260506070117 45 213 3.5 7.0 0.01 0.09 0.01 91 1009.2
20260506062027 45 158 7.8 12.2 0.01 0.09 0.01 93 1009.1
20260506061521 46 171 7.8 10.4 0.00 0.08 0.00 93 1009.3
20260506061015 46 0 7.8 12.2 0.00 0.08 0.00 93 1009.3
20260506060514 46 197 7.0 12.2 0.00 0.08 0.00 93 1009.3
20260506051011 46 221 7.8 10.4 0.00 0.08 0.00 92 1009.5
20260506044511 46 187 8.7 11.3 0.00 0.08 0.00 92 1009.4
20260506044012 46 195 8.7 12.2 0.00 0.08 0.00 93 1009.4
20260506043511 46 206 8.7 12.2 0.00 0.08 0.00 93 1009.4
20260506042511 46 208 9.6 13.0 0.00 0.08 0.00 93 1009.3
20260506042011 46 206 9.6 13.0 0.00 0.08 0.00 93 1009.1
20260506041011 46 210 9.6 11.3 0.00 0.08 0.00 93 1009.2
20260506040511 46 198 9.6 13.0 0.00 0.08 0.00 93 1009.1
20260506040011 46 217 9.6 13.0 0.00 0.08 0.00 93 1009.2
20260506035011 46 213 11.3 16.5 0.00 0.08 0.08 93 1009.4
20260506034511 46 0 11.3 16.5 0.00 0.08 0.08 93 1009.4
20260506034011 46 202 11.3 16.5 0.00 0.08 0.08 93 1009.4
20260506033511 47 218 9.6 16.5 0.00 0.08 0.08 93 1009.4
20260506033006 47 192 9.6 14.8 0.00 0.08 0.08 93 1009.4
20260506032505 47 195 10.4 14.8 0.00 0.08 0.08 93 1009.4
20260506032005 47 215 10.4 14.8 0.00 0.08 0.08 93 1009.4
20260506031505 47 223 10.4 14.8 0.00 0.08 0.08 93 1009.4